Flag for Spain Weather past 2 weeks in Arrecife, Canary Islands, Spain

Now
73 °F

Passing clouds.


Feels Like: 74 °F
Forecast: 73 / 78 °F
Wind: 15 mph from North

Location: Lanzarote / Aeropuerto

Current Time: Jul 31, 2015 at 2:43:11 AM

Latest Report: Jul 31, 2015 at 1:00 AM


Visibility: N/A

Pressure: 29.98 "Hg

Humidity: 78%

Dew point: 66 °F

Location of ArrecifeLocation

Historic Weather in Arrecife — Graph

°F

Arrecife temperature yesterday

Maximum temperature yesterday: 84 °F (at 3:00 PM)
Minimum temperature yesterday: 73 °F (at 12:00 AM)
Average temperature yesterday: 78 °F

Past Weeks' High & Low Weather Summary

 TemperatureHumidityPressure
High91 °F (Jul 22, 5:00 PM)89% (Jul 21, 6:00 AM)30.09 "Hg (Jul 21, 6:00 AM)
Low70 °F (Jul 17, 6:30 AM)43% (Jul 17, 2:30 PM)29.86 "Hg (Jul 21, 6:00 AM)
Average78 °F68%29.99 "Hg
* Reported Jul 16 1:00 AM — Jul 31 1:00 AM, Arrecife, Weather by CustomWeather, © 2015

Note: Actual official high and low records may vary slightly from our data, if they occured in-between our weather recording intervals... More about our weather records

Advertising

Arrecife weather history for previous 24 hours

 ConditionsComfort  
Time TempWeatherWind HumidityBarometerVisibility
1:00 AM
Fri, Jul 31
73 °FPassing clouds.15 mph78%29.98 "HgN/A
12:30 AM73 °FPassing clouds.9 mph83%29.98 "HgN/A
12:00 AM73 °FPassing clouds.7 mph78%29.98 "HgN/A
11:30 PM
Thu, Jul 30
73 °FPassing clouds.8 mph83%29.98 "HgN/A
11:00 PM73 °FPassing clouds.14 mph78%29.98 "HgN/A
10:30 PM73 °FPassing clouds.13 mph83%29.95 "HgN/A
10:00 PM75 °FPassing clouds.17 mph74%29.95 "HgN/A
9:30 PM75 °FPassing clouds.18 mph74%29.92 "HgN/A
9:00 PM75 °FPassing clouds.20 mph78%29.92 "HgN/A
8:30 PM75 °FPassing clouds.22 mph74%29.92 "HgN/A
8:00 PM77 °FPassing clouds.20 mph69%29.92 "HgN/A
7:30 PM77 °FPassing clouds.20 mph69%29.92 "HgN/A
7:00 PM79 °FPassing clouds.18 mph65%29.92 "HgN/A
6:30 PM81 °FPassing clouds.22 mph62%29.92 "HgN/A
6:00 PM81 °FPassing clouds.22 mph62%29.92 "HgN/A
5:30 PM81 °FPassing clouds.23 mph58%29.92 "HgN/A
5:00 PM82 °FPassing clouds.24 mph58%29.95 "HgN/A
4:30 PM82 °FPassing clouds.22 mph55%29.95 "HgN/A
4:00 PM82 °FPassing clouds.23 mph55%29.95 "HgN/A
3:30 PM82 °FPassing clouds.23 mph55%29.98 "HgN/A
3:00 PM84 °FPassing clouds.21 mph51%29.98 "HgN/A
2:30 PM82 °FScattered clouds.23 mph58%29.98 "HgN/A
2:00 PM82 °FScattered clouds.23 mph58%29.98 "HgN/A
1:30 PM82 °FScattered clouds.22 mph55%30.01 "HgN/A
1:00 PM82 °FScattered clouds.23 mph55%30.01 "HgN/A
12:30 PM81 °FPartly sunny.24 mph58%30.01 "HgN/A
12:00 PM81 °FPartly sunny.20 mph62%30.01 "HgN/A
11:30 AM81 °FPartly sunny.24 mph58%30.01 "HgN/A
11:00 AM79 °FPartly sunny.23 mph61%30.01 "HgN/A
10:30 AM79 °FPartly sunny.23 mph65%29.98 "HgN/A
10:00 AM77 °FPartly sunny.22 mph65%29.98 "HgN/A
9:30 AM75 °FPartly sunny.22 mph74%29.98 "HgN/A
9:00 AM75 °FScattered clouds.22 mph74%29.98 "HgN/A
8:30 AM75 °FScattered clouds.17 mph74%29.98 "HgN/A
8:00 AM73 °FPassing clouds.14 mph78%29.95 "HgN/A
7:30 AM73 °FPassing clouds.15 mph78%29.95 "HgN/A
7:00 AM73 °FPassing clouds.15 mph78%29.95 "HgN/A
6:30 AM73 °FPassing clouds.16 mph78%29.95 "HgN/A
6:00 AM73 °FPassing clouds.20 mph78%29.95 "HgN/A
Weather by CustomWeather, © 2015

See weather overviewHow to use our weather pages